Time,TemperatureF,DewpointF,PressureIn,WindDirection,WindDirectionDegrees,WindSpeedMPH,WindSpeedGustMPH,Humidity,HourlyPrecipIn,Conditions,Clouds,dailyrainin,SoftwareType,DateUTC
2013-01-09 00:01:00,18.9,6.5,30.49,ESE,106,5.0,5.0,58,0.00,,,0.00,Wunderground v.1.15,2013-01-09 07:01:00,
2013-01-09 00:11:00,20.3,6.3,30.49,ENE,61,7.0,7.0,54,0.00,,,0.00,Wunderground v.1.15,2013-01-09 07:11:00,
2013-01-09 00:21:00,20.3,6.3,30.49,ESE,111,9.0,11.0,54,0.00,,,0.00,Wunderground v.1.15,2013-01-09 07:21:00,
2013-01-09 00:31:00,20.0,6.4,30.48,East,91,8.0,8.0,55,0.00,,,0.00,Wunderground v.1.15,2013-01-09 07:31:00,
2013-01-09 00:40:00,19.8,6.2,30.48,ENE,76,8.0,10.0,55,0.00,,,0.00,Wunderground v.1.15,2013-01-09 07:40:00,
2013-01-09 00:45:00,19.8,6.2,30.48,ENE,65,8.0,10.0,55,0.00,,,0.00,Wunderground v.1.15,2013-01-09 07:45:00,
2013-01-09 00:50:00,19.2,6.4,30.48,ESE,107,7.0,7.0,57,0.00,,,0.00,Wunderground v.1.15,2013-01-09 07:50:00,
2013-01-09 00:55:00,18.7,6.4,30.48,East,87,5.0,7.0,58,0.00,,,0.00,Wunderground v.1.15,2013-01-09 07:55:00,
2013-01-09 01:01:00,17.8,6.2,30.48,ESE,115,4.0,4.0,60,0.00,,,0.00,Wunderground v.1.15,2013-01-09 08:01:00,
2013-01-09 01:10:00,17.3,6.5,30.49,ESE,109,2.0,2.0,62,0.00,,,0.00,Wunderground v.1.15,2013-01-09 08:10:00,
2013-01-09 01:20:00,16.9,6.5,30.49,ESE,109,2.0,2.0,63,0.00,,,0.00,Wunderground v.1.15,2013-01-09 08:20:00,
2013-01-09 01:26:00,16.4,6.3,30.49,ESE,113,2.0,2.0,64,0.00,,,0.00,Wunderground v.1.15,2013-01-09 08:26:00,
2013-01-09 01:35:00,16.4,6.7,30.49,East,101,3.0,5.0,65,0.00,,,0.00,Wunderground v.1.15,2013-01-09 08:35:00,
2013-01-09 01:45:00,16.7,7.0,30.49,ESE,103,3.0,5.0,65,0.00,,,0.00,Wunderground v.1.15,2013-01-09 08:45:00,
2013-01-09 01:55:00,20.0,7.2,30.49,East,79,4.0,6.0,57,0.00,,,0.00,Wunderground v.1.15,2013-01-09 08:55:00,
2013-01-09 02:01:00,20.2,7.0,30.49,NE,50,4.0,4.0,56,0.00,,,0.00,Wunderground v.1.15,2013-01-09 09:01:00,
2013-01-09 02:10:00,20.3,7.1,30.49,ENE,57,2.0,2.0,56,0.00,,,0.00,Wunderground v.1.15,2013-01-09 09:10:00,
2013-01-09 02:20:00,20.7,7.1,30.50,ESE,103,4.0,7.0,55,0.00,,,0.00,Wunderground v.1.15,2013-01-09 09:20:00,
2013-01-09 02:26:00,22.1,7.6,30.50,ENE,72,5.0,7.0,53,0.00,,,0.00,Wunderground v.1.15,2013-01-09 09:26:00,
2013-01-09 02:35:00,23.9,8.4,30.50,ESE,108,3.0,5.0,51,0.00,,,0.00,Wunderground v.1.15,2013-01-09 09:35:00,
2013-01-09 02:45:00,23.8,7.8,30.51,ESE,111,3.0,3.0,50,0.00,,,0.00,Wunderground v.1.15,2013-01-09 09:45:00,
2013-01-09 02:50:00,23.9,8.4,30.51,East,86,2.0,2.0,51,0.00,,,0.00,Wunderground v.1.15,2013-01-09 09:50:00,
2013-01-09 02:55:00,23.6,8.9,30.51,SE,145,2.0,2.0,53,0.00,,,0.00,Wunderground v.1.15,2013-01-09 09:55:00,
2013-01-09 03:01:00,25.1,9.0,30.50,East,97,3.0,6.0,50,0.00,,,0.00,Wunderground v.1.15,2013-01-09 10:01:00,
2013-01-09 03:10:00,24.3,9.2,30.51,East,98,2.0,3.0,52,0.00,,,0.00,Wunderground v.1.15,2013-01-09 10:10:00,
2013-01-09 03:20:00,23.7,9.0,30.50,SE,144,1.0,1.0,53,0.00,,,0.00,Wunderground v.1.15,2013-01-09 10:20:00,
2013-01-09 03:30:00,23.3,9.5,30.50,SSE,151,0.0,0.0,55,0.00,,,0.00,Wunderground v.1.15,2013-01-09 10:30:00,
2013-01-09 03:35:00,23.4,9.6,30.50,ENE,71,0.0,1.0,55,0.00,,,0.00,Wunderground v.1.15,2013-01-09 10:35:00,
2013-01-09 03:40:00,23.3,9.9,30.51,ENE,76,1.0,2.0,56,0.00,,,0.00,Wunderground v.1.15,2013-01-09 10:40:00,
2013-01-09 03:45:00,22.9,9.9,30.50,East,98,2.0,2.0,57,0.00,,,0.00,Wunderground v.1.15,2013-01-09 10:45:00,
2013-01-09 03:51:00,22.6,10.0,30.50,ESE,107,2.0,3.0,58,0.00,,,0.00,Wunderground v.1.15,2013-01-09 10:51:00,
2013-01-09 04:01:00,21.1,10.1,30.50,East,87,2.0,2.0,62,0.00,,,0.00,Wunderground v.1.15,2013-01-09 11:01:00,
2013-01-09 04:10:00,20.8,9.5,30.50,ESE,104,3.0,3.0,61,0.00,,,0.00,Wunderground v.1.15,2013-01-09 11:10:00,
2013-01-09 04:15:00,20.4,9.4,30.50,East,84,3.0,3.0,62,0.00,,,0.00,Wunderground v.1.15,2013-01-09 11:15:00,
2013-01-09 04:26:00,20.9,8.8,30.49,ENE,69,2.0,2.0,59,0.00,,,0.00,Wunderground v.1.15,2013-01-09 11:26:00,
2013-01-09 04:35:00,21.4,8.5,30.49,ENE,64,2.0,2.0,57,0.00,,,0.00,Wunderground v.1.15,2013-01-09 11:35:00,
2013-01-09 04:45:00,20.7,8.2,30.50,ENE,76,0.0,1.0,58,0.00,,,0.00,Wunderground v.1.15,2013-01-09 11:45:00,
2013-01-09 04:50:00,20.8,7.9,30.49,East,101,1.0,1.0,57,0.00,,,0.00,Wunderground v.1.15,2013-01-09 11:50:00,
2013-01-09 05:01:00,21.0,8.1,30.50,NE,53,2.0,10.0,57,0.00,,,0.00,Wunderground v.1.15,2013-01-09 12:01:00,
2013-01-09 05:10:00,21.6,7.9,30.50,NE,53,4.0,4.0,55,0.00,,,0.00,Wunderground v.1.15,2013-01-09 12:10:00,
2013-01-09 05:15:00,21.5,7.8,30.50,ENE,71,5.0,9.0,55,0.00,,,0.00,Wunderground v.1.15,2013-01-09 12:15:00,
2013-01-09 05:25:00,21.2,7.5,30.50,SE,130,6.0,6.0,55,0.00,,,0.00,Wunderground v.1.15,2013-01-09 12:25:00,
2013-01-09 05:30:00,21.1,7.8,30.50,ENE,73,4.0,4.0,56,0.00,,,0.00,Wunderground v.1.15,2013-01-09 12:30:00,
2013-01-09 05:40:00,21.0,7.7,30.50,East,82,4.0,4.0,56,0.00,,,0.00,Wunderground v.1.15,2013-01-09 12:40:00,
2013-01-09 05:45:00,21.1,7.8,30.51,ENE,70,5.0,5.0,56,0.00,,,0.00,Wunderground v.1.15,2013-01-09 12:45:00,
2013-01-09 05:50:00,21.3,8.0,30.51,East,86,5.0,5.0,56,0.00,,,0.00,Wunderground v.1.15,2013-01-09 12:50:00,
2013-01-09 06:01:00,21.8,8.1,30.53,East,90,5.0,5.0,55,0.00,,,0.00,Wunderground v.1.15,2013-01-09 13:01:00,
2013-01-09 06:11:00,19.3,8.0,30.54,ESE,107,3.0,4.0,61,0.00,,,0.00,Wunderground v.1.15,2013-01-09 13:11:00,
2013-01-09 06:20:00,18.8,8.3,30.54,ENE,65,3.0,9.0,63,0.00,,,0.00,Wunderground v.1.15,2013-01-09 13:20:00,
2013-01-09 06:26:00,19.9,8.2,30.55,SE,132,5.0,9.0,60,0.00,,,0.00,Wunderground v.1.15,2013-01-09 13:26:00,
2013-01-09 06:35:00,20.6,8.1,30.56,ESE,105,4.0,6.0,58,0.00,,,0.00,Wunderground v.1.15,2013-01-09 13:35:00,
2013-01-09 06:40:00,20.0,8.0,30.56,East,91,3.0,3.0,59,0.00,,,0.00,Wunderground v.1.15,2013-01-09 13:40:00,
2013-01-09 06:50:00,19.5,7.9,30.56,East,100,2.0,5.0,60,0.00,,,0.00,Wunderground v.1.15,2013-01-09 13:50:00,
2013-01-09 06:55:00,19.5,7.9,30.56,SE,136,3.0,5.0,60,0.00,,,0.00,Wunderground v.1.15,2013-01-09 13:55:00,
2013-01-09 07:01:00,18.6,7.7,30.57,SE,128,2.0,3.0,62,0.00,,,0.00,Wunderground v.1.15,2013-01-09 14:01:00,
2013-01-09 07:11:00,17.7,7.9,30.58,SE,130,1.0,1.0,65,0.00,,,0.00,Wunderground v.1.15,2013-01-09 14:11:00,
2013-01-09 07:20:00,16.9,7.8,30.58,ESE,115,0.0,0.0,67,0.00,,,0.00,Wunderground v.1.15,2013-01-09 14:20:00,
2013-01-09 07:30:00,17.1,8.0,30.58,ESE,105,1.0,8.0,67,0.00,,,0.00,Wunderground v.1.15,2013-01-09 14:30:00,
2013-01-09 15:26:00,32.8,15.7,30.39,South,177,0.0,9.0,49,0.00,,,0.00,Wunderground v.1.15,2013-01-09 22:26:00,
2013-01-09 15:35:00,32.0,16.8,30.39,South,188,0.0,0.0,53,0.00,,,0.00,Wunderground v.1.15,2013-01-09 22:35:00,
2013-01-09 15:40:00,31.5,17.2,30.39,South,191,0.0,0.0,55,0.00,,,0.00,Wunderground v.1.15,2013-01-09 22:40:00,
2013-01-09 15:45:00,31.0,17.5,30.39,South,179,0.0,0.0,57,0.00,,,0.00,Wunderground v.1.15,2013-01-09 22:45:00,
2013-01-09 15:50:00,30.4,17.4,30.39,SSE,164,0.0,0.0,58,0.00,,,0.00,Wunderground v.1.15,2013-01-09 22:50:00,
2013-01-09 15:55:00,30.0,17.8,30.39,SSE,161,0.0,0.0,60,0.00,,,0.00,Wunderground v.1.15,2013-01-09 22:55:00,
2013-01-09 16:01:00,29.6,17.4,30.38,SSE,158,0.0,0.0,60,0.00,,,0.00,Wunderground v.1.15,2013-01-09 23:01:00,
2013-01-09 16:10:00,28.4,18.1,30.38,SSE,155,0.0,0.0,65,0.00,,,0.00,Wunderground v.1.15,2013-01-09 23:10:00,
2013-01-09 16:15:00,27.9,18.7,30.38,SSE,147,0.0,0.0,68,0.00,,,0.00,Wunderground v.1.15,2013-01-09 23:15:00,
2013-01-09 16:25:00,27.4,18.6,30.37,SSE,163,0.0,0.0,69,0.00,,,0.00,Wunderground v.1.15,2013-01-09 23:25:00,
2013-01-09 16:31:00,27.1,17.9,30.37,SSE,163,0.0,0.0,68,0.00,,,0.00,Wunderground v.1.15,2013-01-09 23:31:00,
2013-01-09 16:40:00,26.9,17.4,30.37,SSE,163,0.0,0.0,67,0.00,,,0.00,Wunderground v.1.15,2013-01-09 23:40:00,
2013-01-09 16:45:00,27.1,16.9,30.36,SSE,163,0.0,0.0,65,0.00,,,0.00,Wunderground v.1.15,2013-01-09 23:45:00,
2013-01-09 16:50:00,26.7,16.9,30.36,SSE,163,0.0,0.0,66,0.00,,,0.00,Wunderground v.1.15,2013-01-09 23:50:00,
2013-01-09 16:55:00,26.6,16.4,30.36,SSE,163,0.0,1.0,65,0.00,,,0.00,Wunderground v.1.15,2013-01-09 23:55:00,
2013-01-09 17:01:00,27.2,16.6,30.36,SSE,163,0.0,1.0,64,0.00,,,0.00,Wunderground v.1.15,2013-01-10 00:01:00,
2013-01-09 17:10:00,26.8,15.9,30.36,South,170,0.0,0.0,63,0.00,,,0.00,Wunderground v.1.15,2013-01-10 00:10:00,
2013-01-09 17:15:00,26.6,16.1,30.35,South,170,0.0,0.0,64,0.00,,,0.00,Wunderground v.1.15,2013-01-10 00:15:00,
2013-01-09 17:20:00,26.1,15.9,30.35,South,170,0.0,0.0,65,0.00,,,0.00,Wunderground v.1.15,2013-01-10 00:20:00,
2013-01-09 17:25:00,25.6,16.5,30.35,South,170,0.0,0.0,68,0.00,,,0.00,Wunderground v.1.15,2013-01-10 00:25:00,
2013-01-09 17:30:00,25.5,16.4,30.36,South,170,0.0,0.0,68,0.00,,,0.00,Wunderground v.1.15,2013-01-10 00:30:00,
2013-01-09 17:36:00,26.1,15.9,30.36,South,170,0.0,0.0,65,0.00,,,0.00,Wunderground v.1.15,2013-01-10 00:36:00,
2013-01-09 17:45:00,25.6,15.8,30.36,South,170,0.0,0.0,66,0.00,,,0.00,Wunderground v.1.15,2013-01-10 00:45:00,
2013-01-09 17:55:00,26.1,16.3,30.36,ESE,108,1.0,1.0,66,0.00,,,0.00,Wunderground v.1.15,2013-01-10 00:55:00,
2013-01-09 18:01:00,26.0,15.8,30.36,East,93,1.0,1.0,65,0.00,,,0.00,Wunderground v.1.15,2013-01-10 01:01:00,
2013-01-09 18:10:00,26.5,16.0,30.36,ESE,117,1.0,2.0,64,0.00,,,0.00,Wunderground v.1.15,2013-01-10 01:10:00,
2013-01-09 18:15:00,26.1,15.9,30.36,East,100,2.0,2.0,65,0.00,,,0.00,Wunderground v.1.15,2013-01-10 01:15:00,
2013-01-09 18:25:00,26.0,15.5,30.36,ENE,66,2.0,2.0,64,0.00,,,0.00,Wunderground v.1.15,2013-01-10 01:25:00,
2013-01-09 18:30:00,25.5,15.0,30.36,ESE,111,3.0,5.0,64,0.00,,,0.00,Wunderground v.1.15,2013-01-10 01:30:00,
2013-01-09 18:43:00,26.1,14.8,30.36,East,84,4.0,6.0,62,0.00,,,0.00,Wunderground v.1.15,2013-01-10 01:43:00,
2013-01-09 18:50:00,24.9,14.8,30.36,East,80,3.0,5.0,65,0.00,,,0.00,Wunderground v.1.15,2013-01-10 01:50:00,
2013-01-09 18:55:00,24.8,15.0,30.36,East,85,2.0,5.0,66,0.00,,,0.00,Wunderground v.1.15,2013-01-10 01:55:00,
2013-01-09 19:01:00,24.4,14.7,30.36,ENE,71,1.0,3.0,66,0.00,,,0.00,Wunderground v.1.15,2013-01-10 02:01:00,
2013-01-09 19:10:00,24.0,15.0,30.36,East,90,1.0,1.0,68,0.00,,,0.00,Wunderground v.1.15,2013-01-10 02:10:00,
2013-01-09 19:15:00,24.0,14.6,30.35,ESE,102,0.0,1.0,67,0.00,,,0.00,Wunderground v.1.15,2013-01-10 02:15:00,
2013-01-09 19:25:00,25.3,13.7,30.35,East,94,3.0,3.0,61,0.00,,,0.00,Wunderground v.1.15,2013-01-10 02:25:00,
2013-01-09 19:30:00,25.4,13.4,30.35,ESE,112,4.0,4.0,60,0.00,,,0.00,Wunderground v.1.15,2013-01-10 02:30:00,
2013-01-09 19:40:00,24.7,13.1,30.35,East,86,2.0,9.0,61,0.00,,,0.00,Wunderground v.1.15,2013-01-10 02:40:00,
2013-01-09 19:45:00,26.2,13.0,30.35,East,88,5.0,9.0,57,0.00,,,0.00,Wunderground v.1.15,2013-01-10 02:45:00,
2013-01-09 19:55:00,26.5,12.9,30.35,East,92,4.0,9.0,56,0.00,,,0.00,Wunderground v.1.15,2013-01-10 02:55:00,
2013-01-09 20:01:00,26.8,12.4,30.35,East,80,6.0,8.0,54,0.00,,,0.00,Wunderground v.1.15,2013-01-10 03:01:00,
2013-01-09 20:10:00,27.0,11.7,30.35,East,96,7.0,10.0,52,0.00,,,0.00,Wunderground v.1.15,2013-01-10 03:10:00,
2013-01-09 20:16:00,27.1,11.8,30.35,East,101,7.0,10.0,52,0.00,,,0.00,Wunderground v.1.15,2013-01-10 03:16:00,
2013-01-09 20:25:00,26.8,11.5,30.34,ENE,68,8.0,10.0,52,0.00,,,0.00,Wunderground v.1.15,2013-01-10 03:25:00,
2013-01-09 20:30:00,26.8,11.5,30.35,ESE,117,8.0,8.0,52,0.00,,,0.00,Wunderground v.1.15,2013-01-10 03:30:00,
2013-01-09 20:40:00,26.6,11.3,30.34,East,85,8.0,8.0,52,0.00,,,0.00,Wunderground v.1.15,2013-01-10 03:40:00,
2013-01-09 20:45:00,26.5,11.2,30.34,ENE,78,8.0,9.0,52,0.00,,,0.00,Wunderground v.1.15,2013-01-10 03:45:00,
2013-01-09 20:55:00,26.1,10.9,30.33,ENE,75,9.0,9.0,52,0.00,,,0.00,Wunderground v.1.15,2013-01-10 03:55:00,
2013-01-09 21:01:00,25.8,11.0,30.33,East,87,9.0,9.0,53,0.00,,,0.00,Wunderground v.1.15,2013-01-10 04:01:00,
2013-01-09 21:10:00,24.9,11.0,30.33,ESE,121,7.0,7.0,55,0.00,,,0.00,Wunderground v.1.15,2013-01-10 04:10:00,
2013-01-09 21:15:00,24.6,10.7,30.33,ENE,59,6.0,7.0,55,0.00,,,0.00,Wunderground v.1.15,2013-01-10 04:15:00,
2013-01-09 21:25:00,24.1,10.2,30.33,ENE,66,5.0,7.0,55,0.00,,,0.00,Wunderground v.1.15,2013-01-10 04:25:00,
2013-01-09 21:30:00,24.2,10.3,30.33,East,80,5.0,6.0,55,0.00,,,0.00,Wunderground v.1.15,2013-01-10 04:30:00,
2013-01-09 21:45:00,23.1,10.1,30.33,East,88,6.0,9.0,57,0.00,,,0.00,Wunderground v.1.15,2013-01-10 04:45:00,
2013-01-09 21:50:00,22.9,9.9,30.33,ENE,78,6.0,6.0,57,0.00,,,0.00,Wunderground v.1.15,2013-01-10 04:50:00,
2013-01-09 22:01:00,22.1,9.9,30.32,East,89,4.0,4.0,59,0.00,,,0.00,Wunderground v.1.15,2013-01-10 05:01:00,
2013-01-09 22:05:00,22.3,9.7,30.33,East,96,4.0,6.0,58,0.00,,,0.00,Wunderground v.1.15,2013-01-10 05:05:00,
2013-01-09 22:10:00,22.5,9.9,30.33,ENE,57,5.0,5.0,58,0.00,,,0.00,Wunderground v.1.15,2013-01-10 05:10:00,
2013-01-09 22:15:00,22.5,9.5,30.33,East,84,4.0,5.0,57,0.00,,,0.00,Wunderground v.1.15,2013-01-10 05:15:00,
2013-01-09 22:25:00,21.9,9.4,30.32,ESE,118,5.0,5.0,58,0.00,,,0.00,Wunderground v.1.15,2013-01-10 05:25:00,
2013-01-09 22:30:00,21.4,9.3,30.32,ENE,68,5.0,5.0,59,0.00,,,0.00,Wunderground v.1.15,2013-01-10 05:30:00,
2013-01-09 22:40:00,21.3,9.6,30.31,ENE,67,5.0,5.0,60,0.00,,,0.00,Wunderground v.1.15,2013-01-10 05:40:00,
2013-01-09 22:45:00,21.7,9.2,30.31,East,97,6.0,8.0,58,0.00,,,0.00,Wunderground v.1.15,2013-01-10 05:45:00,
2013-01-09 22:55:00,22.8,9.0,30.31,ENE,76,4.0,5.0,55,0.00,,,0.00,Wunderground v.1.15,2013-01-10 05:55:00,
2013-01-09 23:01:00,23.4,9.2,30.31,East,79,5.0,7.0,54,0.00,,,0.00,Wunderground v.1.15,2013-01-10 06:01:00,
2013-01-09 23:10:00,23.3,8.7,30.31,ESE,119,5.0,5.0,53,0.00,,,0.00,Wunderground v.1.15,2013-01-10 06:10:00,
2013-01-09 23:15:00,22.9,9.1,30.30,East,95,5.0,6.0,55,0.00,,,0.00,Wunderground v.1.15,2013-01-10 06:15:00,
2013-01-09 23:20:00,23.2,9.0,30.30,ENE,67,5.0,5.0,54,0.00,,,0.00,Wunderground v.1.15,2013-01-10 06:20:00,
2013-01-09 23:30:00,23.2,9.0,30.30,East,94,5.0,8.0,54,0.00,,,0.00,Wunderground v.1.15,2013-01-10 06:30:00,
2013-01-09 23:40:00,23.9,9.2,30.29,East,88,7.0,11.0,53,0.00,,,0.00,Wunderground v.1.15,2013-01-10 06:40:00,
2013-01-09 23:45:00,23.9,9.6,30.29,East,94,7.0,11.0,54,0.00,,,0.00,Wunderground v.1.15,2013-01-10 06:45:00,
2013-01-09 23:50:00,23.7,9.0,30.29,East,81,6.0,6.0,53,0.00,,,0.00,Wunderground v.1.15,2013-01-10 06:50:00,
2013-01-09 23:55:00,23.9,9.2,30.29,ENE,66,6.0,7.0,53,0.00,,,0.00,Wunderground v.1.15,2013-01-10 06:55:00,